QPF
0.00 0.00 0.00 0.00 0.00 0.00 0.00 0.00 0.00 0.00 0.00 0.00 0.00 0.00 0.00 0.00 0.00 0.00 0.00 0.00 0.00 0.00 0.00 0.00 0.00 0.00 0.00 0.00 0.00 0.00 0.00 0.00 0.00 0.01 0.01 0.01 0.01 0.01 0.01 0.03 0.04 0.04 0.06
0.00 0.00 0.00 0.00 0.00 0.00 0.00 0.00 0.00 0.00 0.00 0.00 0.00 0.00 0.00 0.00 0.00 0.00 0.00 0.00 0.00 0.00 0.00 0.00 0.00 0.00 0.00 0.00 0.00 0.00 0.00 0.00 0.01 0.02 0.03 0.02 0.01 0.01 0.02 0.03 0.02 0.04 0.06
0.00 0.00 0.00 0.00 0.00 0.00 0.00 0.00 0.00 0.00 0.00 0.00 0.00 0.00 0.00 0.00 0.00 0.00 0.00 0.00 0.00 0.00 0.00 0.00 0.00 0.00 0.00 0.00 0.00 0.00 0.00 0.00 0.00 0.02 0.01 0.00 0.01 0.02 0.03 0.03 0.02 0.04 0.04
0.00 0.00 0.00 0.00 0.00 0.00 0.00 0.00 0.00 0.00 0.00 0.00 0.00 0.00 0.00 0.00 0.00 0.00 0.00 0.00 0.00 0.00 0.00 0.00 0.00 0.00 0.00 0.00 0.00 0.00 0.00 0.00 0.01 0.01 0.01 0.01 0.00 0.02 0.01 0.00 0.01 0.03 0.03
0.00 0.00 0.00 0.00 0.00 0.00 0.00 0.00 0.00 0.00 0.00 0.00 0.00 0.00 0.00 0.00 0.00 0.00 0.00 0.00 0.00 0.00 0.01 0.01 0.00 0.00 0.00 0.00 0.00 0.00 0.00 0.00 0.01 0.02 0.05 0.03 0.01 0.01 0.00 0.00 0.00 0.01 0.02
0.00 0.00 0.00 0.00 0.00 0.00 0.00 0.00 0.00 0.00 0.00 0.00 0.00 0.00 0.00 0.00 0.01 0.00 0.00 0.00 0.00 0.00 0.01 0.01 0.00 0.00 0.00 0.00 0.00 0.00 0.00 0.00 0.00 0.02 0.06 0.04 0.02 0.02 0.00 0.00 0.00 0.00 0.01
0.00 0.00 0.00 0.00 0.00 0.00 0.00 0.00 0.00 0.00 0.00 0.00 0.00 0.00 0.00 0.01 0.01 0.01 0.00 0.00 0.00 0.00 0.00 0.01 0.00 0.00 0.00 0.00 0.00 0.00 0.00 0.00 0.00 0.03 0.07 0.05 0.03 0.03 0.01 0.00 0.00 0.00 0.00
0.00 0.00 0.00 0.00 0.00 0.00 0.00 0.00 0.00 0.00 0.00 0.00 0.00 0.00 0.00 0.00 0.00 0.00 0.00 0.00 0.00 0.00 0.01 0.01 0.00 0.00 0.00 0.00 0.00 0.00 0.00 0.00 0.00 0.03 0.09 0.05 0.03 0.03 0.01 0.00 0.00 0.00 0.00
0.00 0.00 0.00 0.00 0.00 0.00 0.00 0.00 0.00 0.00 0.00 0.00 0.00 0.00 0.00 0.00 0.00 0.00 0.00 0.00 0.00 0.01 0.01 0.01 0.01 0.00 0.00 0.00 0.00 0.00 0.00 0.00 0.00 0.01 0.04 0.05 0.04 0.05 0.03 0.01 0.00 0.00 0.00
0.01 0.00 0.00 0.00 0.00 0.00 0.00 0.00 0.00 0.00 0.00 0.00 0.00 0.00 0.00 0.00 0.00 0.00 0.00 0.00 0.01 0.01 0.01 0.01 0.01 0.01 0.01 0.00 0.00 0.00 0.00 0.00 0.00 0.00 0.02 0.04 0.06 0.07 0.05 0.02 0.01 0.00 0.00
0.02 0.01 0.01 0.01 0.00 0.01 0.00 0.01 0.01 0.01 0.01 0.01 0.01 0.01 0.01 0.00 0.00 0.00 0.01 0.02 0.03 0.04 0.04 0.04 0.03 0.03 0.02 0.01 0.01 0.00 0.00 0.00 0.00 0.00 0.01 0.02 0.05 0.08 0.09 0.05 0.02 0.01 0.01
0.04 0.04 0.03 0.03 0.02 0.02 0.02 0.02 0.03 0.03 0.03 0.03 0.03 0.04 0.03 0.03 0.02 0.02 0.02 0.06 0.09 0.11 0.13 0.12 0.10 0.08 0.06 0.03 0.02 0.02 0.01 0.00 0.00 0.00 0.01 0.01 0.04 0.08 0.09 0.07 0.04 0.02 0.01
0.08 0.07 0.06 0.06 0.06 0.05 0.05 0.04 0.04 0.04 0.06 0.07 0.07 0.07 0.07 0.07 0.08 0.09 0.06 0.09 0.13 0.17 0.19 0.20 0.20 0.14 0.11 0.08 0.07 0.05 0.03 0.02 0.01 0.02 0.01 0.01 0.04 0.09 0.11 0.08 0.06 0.04 0.03
0.13 0.09 0.08 0.08 0.07 0.07 0.08 0.08 0.08 0.06 0.06 0.07 0.07 0.08 0.12 0.12 0.10 0.10 0.09 0.10 0.15 0.19 0.25 0.29 0.26 0.23 0.20 0.17 0.14 0.10 0.07 0.05 0.03 0.04 0.03 0.05 0.07 0.12 0.14 0.11 0.07 0.05 0.03
0.15 0.12 0.10 0.10 0.11 0.11 0.10 0.12 0.09 0.07 0.07 0.07 0.09 0.09 0.10 0.08 0.06 0.05 0.05 0.06 0.10 0.16 0.22 0.28 0.32 0.31 0.27 0.25 0.23 0.19 0.13 0.10 0.09 0.09 0.10 0.15 0.19 0.21 0.21 0.18 0.13 0.09 0.05
0.15 0.15 0.14 0.14 0.14 0.13 0.11 0.11 0.07 0.05 0.05 0.04 0.05 0.06 0.06 0.04 0.04 0.03 0.03 0.04 0.06 0.10 0.16 0.25 0.35 0.38 0.36 0.36 0.32 0.27 0.22 0.17 0.14 0.14 0.14 0.16 0.21 0.23 0.23 0.20 0.16 0.12 0.08
0.14 0.14 0.13 0.13 0.12 0.09 0.07 0.05 0.04 0.03 0.03 0.04 0.03 0.03 0.03 0.02 0.02 0.02 0.02 0.03 0.04 0.07 0.11 0.17 0.30 0.46 0.51 0.50 0.44 0.38 0.35 0.29 0.23 0.20 0.19 0.18 0.20 0.23 0.22 0.20 0.17 0.14 0.10
0.09 0.09 0.09 0.10 0.09 0.05 0.04 0.03 0.03 0.03 0.03 0.03 0.02 0.02 0.02 0.01 0.01 0.01 0.02 0.02 0.02 0.04 0.08 0.13 0.18 0.31 0.43 0.50 0.53 0.50 0.44 0.37 0.31 0.27 0.26 0.23 0.20 0.18 0.18 0.20 0.16 0.14 0.11
0.04 0.04 0.04 0.04 0.05 0.03 0.02 0.01 0.01 0.01 0.01 0.01 0.01 0.01 0.01 0.01 0.01 0.01 0.01 0.01 0.01 0.03 0.06 0.09 0.14 0.20 0.28 0.36 0.43 0.47 0.42 0.33 0.28 0.27 0.25 0.22 0.20 0.17 0.15 0.15 0.18 0.15 0.13
0.01 0.01 0.01 0.01 0.01 0.00 0.00 0.00 0.00 0.00 0.00 0.00 0.00 0.00 0.00 0.00 0.00 0.00 0.00 0.00 0.01 0.01 0.02 0.04 0.10 0.17 0.24 0.30 0.33 0.35 0.38 0.34 0.29 0.26 0.21 0.19 0.19 0.17 0.15 0.18 0.14 0.12 0.13
0.00 0.00 0.00 0.00 0.00 0.00 0.00 0.00 0.00 0.00 0.00 0.00 0.00 0.00 0.00 0.00 0.00 0.00 0.00 0.00 0.01 0.01 0.02 0.06 0.11 0.19 0.23 0.26 0.31 0.32 0.30 0.28 0.25 0.23 0.17 0.15 0.14 0.13 0.15 0.16 0.13 0.09 0.06
0.00 0.00 0.00 0.00 0.00 0.00 0.00 0.00 0.00 0.00 0.00 0.00 0.00 0.00 0.00 0.00 0.00 0.00 0.00 0.00 0.01 0.01 0.02 0.05 0.10 0.12 0.14 0.20 0.26 0.31 0.27 0.24 0.22 0.17 0.14 0.09 0.07 0.09 0.12 0.14 0.16 0.13 0.08
0.00 0.00 0.00 0.00 0.00 0.00 0.00 0.00 0.00 0.00 0.00 0.00 0.00 0.00 0.00 0.00 0.00 0.00 0.00 0.00 0.00 0.01 0.01 0.03 0.06 0.08 0.09 0.13 0.20 0.26 0.24 0.19 0.17 0.16 0.14 0.11 0.09 0.07 0.07 0.11 0.13 0.11 0.09
0.00 0.00 0.00 0.00 0.00 0.00 0.00 0.00 0.00 0.00 0.00 0.00 0.00 0.00 0.00 0.00 0.00 0.00 0.00 0.00 0.00 0.00 0.01 0.01 0.02 0.04 0.06 0.09 0.15 0.22 0.24 0.19 0.13 0.13 0.15 0.15 0.14 0.10 0.07 0.07 0.07 0.08 0.07
0.00 0.00 0.00 0.00 0.00 0.00 0.00 0.00 0.00 0.00 0.00 0.00 0.00 0.00 0.00 0.00 0.00 0.00 0.00 0.00 0.00 0.00 0.00 0.00 0.01 0.02 0.03 0.05 0.09 0.15 0.20 0.18 0.13 0.10 0.12 0.15 0.17 0.10 0.06 0.05 0.05 0.07 0.07
0.00 0.00 0.00 0.00 0.00 0.00 0.00 0.00 0.00 0.00 0.00 0.00 0.00 0.00 0.00 0.00 0.00 0.00 0.00 0.00 0.00 0.00 0.00 0.00 0.00 0.01 0.01 0.02 0.04 0.07 0.11 0.16 0.14 0.10 0.08 0.09 0.11 0.08 0.06 0.05 0.04 0.03 0.05
MSLP
1011.70 1011.32 1011.08 1011.04 1011.20 1011.52 1011.92 1012.33 1012.68 1012.94 1013.11 1013.22 1013.32 1013.45 1013.64 1013.88 1014.16 1014.45 1014.73 1014.96 1015.15 1015.29 1015.41 1015.52 1015.64 1015.76 1015.88 1016.00 1016.09 1016.16 1016.19 1016.21 1016.22 1016.23 1016.26 1016.31 1016.38 1016.48 1016.59 1016.71 1016.84 1016.98 1017.14
1011.59 1011.29 1011.12 1011.13 1011.32 1011.64 1012.03 1012.41 1012.75 1013.01 1013.20 1013.35 1013.50 1013.69 1013.91 1014.17 1014.44 1014.70 1014.92 1015.09 1015.22 1015.32 1015.42 1015.52 1015.64 1015.78 1015.92 1016.04 1016.14 1016.20 1016.22 1016.23 1016.24 1016.26 1016.31 1016.39 1016.50 1016.62 1016.75 1016.89 1017.03 1017.18 1017.34
1011.44 1011.22 1011.13 1011.22 1011.45 1011.80 1012.18 1012.55 1012.87 1013.11 1013.31 1013.48 1013.65 1013.86 1014.10 1014.36 1014.60 1014.82 1014.99 1015.10 1015.19 1015.26 1015.34 1015.44 1015.57 1015.73 1015.88 1016.01 1016.11 1016.17 1016.20 1016.21 1016.23 1016.28 1016.36 1016.47 1016.61 1016.76 1016.92 1017.07 1017.22 1017.38 1017.55
1011.28 1011.16 1011.18 1011.34 1011.64 1012.02 1012.41 1012.76 1013.04 1013.25 1013.42 1013.58 1013.75 1013.95 1014.18 1014.42 1014.64 1014.82 1014.94 1015.02 1015.08 1015.13 1015.21 1015.33 1015.48 1015.65 1015.82 1015.96 1016.07 1016.13 1016.17 1016.19 1016.23 1016.31 1016.42 1016.57 1016.73 1016.91 1017.08 1017.25 1017.40 1017.56 1017.73
1011.15 1011.14 1011.26 1011.53 1011.89 1012.30 1012.68 1013.00 1013.23 1013.40 1013.52 1013.64 1013.78 1013.96 1014.17 1014.38 1014.57 1014.73 1014.83 1014.89 1014.94 1015.00 1015.10 1015.24 1015.41 1015.60 1015.78 1015.94 1016.04 1016.11 1016.16 1016.20 1016.26 1016.36 1016.50 1016.67 1016.86 1017.05 1017.23 1017.39 1017.55 1017.71 1017.89
1011.07 1011.17 1011.40 1011.76 1012.18 1012.61 1012.97 1013.25 1013.42 1013.52 1013.58 1013.64 1013.75 1013.89 1014.08 1014.28 1014.45 1014.60 1014.69 1014.76 1014.82 1014.91 1015.03 1015.19 1015.39 1015.60 1015.79 1015.94 1016.06 1016.13 1016.18 1016.24 1016.32 1016.44 1016.59 1016.78 1016.97 1017.15 1017.32 1017.48 1017.63 1017.80 1017.98
1011.07 1011.26 1011.58 1012.01 1012.48 1012.90 1013.24 1013.45 1013.56 1013.58 1013.57 1013.59 1013.66 1013.79 1013.96 1014.15 1014.33 1014.47 1014.58 1014.67 1014.75 1014.86 1015.00 1015.19 1015.40 1015.62 1015.82 1015.98 1016.09 1016.17 1016.23 1016.29 1016.38 1016.51 1016.67 1016.84 1017.02 1017.19 1017.34 1017.48 1017.63 1017.79 1017.99
1011.13 1011.40 1011.80 1012.27 1012.75 1013.15 1013.43 1013.58 1013.61 1013.57 1013.51 1013.49 1013.54 1013.67 1013.84 1014.04 1014.23 1014.39 1014.52 1014.62 1014.71 1014.84 1014.99 1015.19 1015.41 1015.63 1015.82 1015.98 1016.10 1016.18 1016.25 1016.32 1016.42 1016.54 1016.69 1016.85 1017.00 1017.13 1017.26 1017.38 1017.51 1017.69 1017.91
1011.26 1011.59 1012.03 1012.51 1012.97 1013.32 1013.54 1013.61 1013.57 1013.48 1013.40 1013.37 1013.43 1013.57 1013.76 1013.98 1014.19 1014.36 1014.48 1014.58 1014.68 1014.80 1014.95 1015.13 1015.34 1015.55 1015.75 1015.90 1016.02 1016.12 1016.20 1016.28 1016.38 1016.49 1016.62 1016.75 1016.87 1016.97 1017.06 1017.16 1017.29 1017.47 1017.71
1011.46 1011.82 1012.27 1012.73 1013.14 1013.42 1013.56 1013.56 1013.47 1013.35 1013.26 1013.25 1013.34 1013.51 1013.73 1013.96 1014.18 1014.34 1014.46 1014.54 1014.61 1014.70 1014.82 1014.98 1015.16 1015.35 1015.53 1015.69 1015.82 1015.93 1016.02 1016.12 1016.22 1016.33 1016.44 1016.54 1016.63 1016.70 1016.76 1016.84 1016.97 1017.16 1017.43
1011.75 1012.12 1012.55 1012.96 1013.28 1013.47 1013.52 1013.46 1013.34 1013.21 1013.14 1013.16 1013.28 1013.49 1013.73 1013.98 1014.18 1014.33 1014.41 1014.45 1014.48 1014.51 1014.58 1014.69 1014.84 1015.00 1015.17 1015.32 1015.46 1015.59 1015.71 1015.82 1015.93 1016.04 1016.14 1016.22 1016.28 1016.33 1016.38 1016.45 1016.58 1016.79 1017.07
1012.13 1012.49 1012.87 1013.19 1013.42 1013.51 1013.48 1013.36 1013.21 1013.09 1013.05 1013.11 1013.27 1013.50 1013.76 1014.00 1014.18 1014.29 1014.32 1014.31 1014.27 1014.25 1014.26 1014.31 1014.41 1014.53 1014.68 1014.83 1014.98 1015.12 1015.26 1015.39 1015.52 1015.64 1015.73 1015.81 1015.85 1015.89 1015.93 1016.01 1016.15 1016.37 1016.68
1012.59 1012.92 1013.23 1013.46 1013.57 1013.56 1013.45 1013.29 1013.13 1013.02 1013.01 1013.10 1013.29 1013.53 1013.78 1014.00 1014.14 1014.20 1014.19 1014.11 1014.02 1013.94 1013.89 1013.89 1013.93 1014.01 1014.13 1014.26 1014.40 1014.55 1014.71 1014.86 1015.00 1015.13 1015.24 1015.32 1015.37 1015.41 1015.46 1015.55 1015.70 1015.94 1016.26
1013.13 1013.41 1013.63 1013.75 1013.75 1013.65 1013.48 1013.29 1013.12 1013.03 1013.04 1013.15 1013.33 1013.56 1013.78 1013.95 1014.05 1014.07 1014.01 1013.90 1013.77 1013.64 1013.55 1013.49 1013.48 1013.51 1013.58 1013.68 1013.80 1013.94 1014.10 1014.26 1014.42 1014.56 1014.68 1014.78 1014.85 1014.91 1014.98 1015.09 1015.26 1015.51 1015.84
1013.70 1013.90 1014.02 1014.03 1013.94 1013.78 1013.57 1013.36 1013.20 1013.12 1013.14 1013.24 1013.40 1013.58 1013.74 1013.86 1013.92 1013.90 1013.82 1013.70 1013.56 1013.42 1013.29 1013.20 1013.13 1013.10 1013.11 1013.15 1013.22 1013.33 1013.47 1013.62 1013.79 1013.95 1014.09 1014.21 1014.31 1014.40 1014.51 1014.65 1014.84 1015.10 1015.43
1014.22 1014.34 1014.36 1014.28 1014.12 1013.92 1013.70 1013.50 1013.36 1013.30 1013.30 1013.37 1013.47 1013.58 1013.67 1013.73 1013.74 1013.70 1013.63 1013.53 1013.41 1013.29 1013.16 1013.04 1012.92 1012.83 1012.75 1012.71 1012.71 1012.76 1012.86 1012.99 1013.15 1013.32 1013.48 1013.63 1013.77 1013.90 1014.04 1014.20 1014.42 1014.69 1015.01
1014.64 1014.66 1014.59 1014.45 1014.26 1014.05 1013.86 1013.70 1013.59 1013.54 1013.53 1013.54 1013.56 1013.57 1013.58 1013.56 1013.54 1013.50 1013.46 1013.41 1013.34 1013.26 1013.15 1013.01 1012.85 1012.68 1012.51 1012.38 1012.29 1012.26 1012.30 1012.40 1012.54 1012.71 1012.89 1013.06 1013.23 1013.39 1013.56 1013.76 1013.99 1014.26 1014.58
1014.89 1014.82 1014.68 1014.50 1014.31 1014.14 1014.01 1013.92 1013.87 1013.83 1013.79 1013.74 1013.66 1013.57 1013.47 1013.38 1013.32 1013.29 1013.30 1013.31 1013.32 1013.30 1013.22 1013.08 1012.88 1012.63 1012.37 1012.13 1011.95 1011.84 1011.81 1011.87 1011.98 1012.15 1012.33 1012.52 1012.71 1012.89 1013.08 1013.29 1013.53 1013.80 1014.11
1014.96 1014.80 1014.62 1014.44 1014.29 1014.19 1014.15 1014.15 1014.16 1014.14 1014.08 1013.96 1013.78 1013.57 1013.37 1013.21 1013.11 1013.09 1013.14 1013.23 1013.32 1013.36 1013.32 1013.18 1012.95 1012.64 1012.30 1011.97 1011.70 1011.51 1011.42 1011.43 1011.52 1011.67 1011.84 1012.03 1012.21 1012.40 1012.58 1012.79 1013.02 1013.28 1013.58
1014.85 1014.65 1014.44 1014.28 1014.20 1014.20 1014.27 1014.36 1014.44 1014.46 1014.37 1014.18 1013.91 1013.59 1013.29 1013.05 1012.92 1012.90 1012.99 1013.14 1013.29 1013.39 1013.39 1013.26 1013.01 1012.66 1012.26 1011.86 1011.53 1011.28 1011.15 1011.12 1011.18 1011.31 1011.45 1011.61 1011.77 1011.91 1012.07 1012.24 1012.45 1012.69 1012.97
1014.63 1014.40 1014.20 1014.08 1014.07 1014.17 1014.35 1014.54 1014.69 1014.74 1014.64 1014.40 1014.04 1013.63 1013.23 1012.92 1012.74 1012.71 1012.82 1013.01 1013.22 1013.36 1013.39 1013.28 1013.02 1012.66 1012.23 1011.81 1011.45 1011.18 1011.02 1010.97 1011.00 1011.09 1011.19 1011.29 1011.38 1011.46 1011.55 1011.66 1011.81 1012.01 1012.27
1014.37 1014.14 1013.96 1013.88 1013.95 1014.13 1014.40 1014.68 1014.89 1014.97 1014.87 1014.58 1014.16 1013.67 1013.20 1012.82 1012.60 1012.55 1012.66 1012.86 1013.09 1013.26 1013.32 1013.22 1012.98 1012.63 1012.22 1011.81 1011.46 1011.20 1011.05 1010.98 1010.99 1011.02 1011.06 1011.07 1011.06 1011.04 1011.02 1011.04 1011.12 1011.26 1011.49
1014.15 1013.93 1013.78 1013.74 1013.85 1014.09 1014.42 1014.75 1015.01 1015.11 1015.01 1014.71 1014.25 1013.71 1013.19 1012.76 1012.50 1012.42 1012.51 1012.70 1012.92 1013.10 1013.16 1013.09 1012.89 1012.57 1012.21 1011.85 1011.55 1011.33 1011.20 1011.14 1011.12 1011.10 1011.05 1010.95 1010.82 1010.66 1010.52 1010.42 1010.39 1010.47 1010.64
1014.03 1013.85 1013.71 1013.69 1013.81 1014.06 1014.41 1014.76 1015.03 1015.14 1015.05 1014.75 1014.28 1013.73 1013.19 1012.74 1012.44 1012.33 1012.37 1012.53 1012.73 1012.89 1012.96 1012.90 1012.74 1012.48 1012.19 1011.91 1011.68 1011.52 1011.43 1011.38 1011.34 1011.26 1011.12 1010.90 1010.63 1010.34 1010.05 1009.82 1009.68 1009.67 1009.79
1014.04 1013.88 1013.75 1013.72 1013.81 1014.03 1014.35 1014.68 1014.94 1015.06 1014.98 1014.70 1014.26 1013.73 1013.19 1012.74 1012.42 1012.27 1012.27 1012.38 1012.53 1012.65 1012.71 1012.66 1012.53 1012.34 1012.13 1011.94 1011.79 1011.71 1011.67 1011.63 1011.57 1011.43 1011.21 1010.89 1010.49 1010.06 1009.64 1009.29 1009.05 1008.95 1009.00
1014.17 1014.03 1013.88 1013.80 1013.83 1013.99 1014.24 1014.52 1014.75 1014.86 1014.79 1014.55 1014.16 1013.67 1013.18 1012.75 1012.43 1012.25 1012.20 1012.25 1012.33 1012.40 1012.42 1012.37 1012.27 1012.13 1011.99 1011.88 1011.83 1011.81 1011.81 1011.80 1011.73 1011.55 1011.26 1010.86 1010.37 1009.84 1009.32 1008.87 1008.54 1008.36 1008.35
Thickness
5823 5824 5822 5820 5818 5816 5814 5810 5807 5804 5801 5799 5796 5794 5792 5790 5787 5785 5782 5780 5778 5775 5773 5770 5767 5765 5763 5761 5760 5758 5757 5756 5755 5753 5752 5751 5750 5749 5749 5748 5746 5744 5743
5829 5824 5821 5819 5817 5815 5812 5809 5805 5802 5799 5797 5794 5792 5790 5788 5786 5783 5781 5779 5777 5775 5773 5770 5768 5765 5763 5761 5759 5758 5756 5755 5754 5753 5752 5751 5750 5749 5748 5747 5745 5743 5742
5828 5823 5820 5817 5815 5813 5810 5807 5804 5800 5797 5795 5792 5790 5788 5786 5784 5782 5779 5777 5776 5774 5772 5770 5767 5765 5763 5761 5759 5757 5756 5754 5753 5752 5751 5750 5749 5749 5747 5746 5745 5743 5741
5826 5822 5819 5816 5813 5811 5808 5805 5802 5799 5796 5793 5791 5788 5786 5783 5781 5780 5778 5776 5774 5772 5770 5768 5767 5765 5763 5761 5759 5757 5755 5753 5752 5751 5750 5749 5749 5748 5746 5745 5744 5742 5741
5823 5820 5817 5814 5811 5808 5806 5803 5800 5797 5794 5791 5789 5786 5784 5782 5780 5778 5776 5774 5772 5770 5768 5766 5765 5763 5761 5760 5758 5757 5755 5753 5752 5751 5749 5748 5748 5747 5746 5744 5743 5742 5741
5820 5817 5814 5811 5809 5806 5804 5801 5798 5795 5792 5789 5787 5784 5782 5780 5778 5776 5774 5772 5770 5768 5766 5764 5763 5761 5759 5758 5757 5756 5754 5753 5752 5750 5749 5748 5747 5746 5745 5744 5743 5742 5740
5818 5815 5812 5809 5806 5803 5800 5798 5795 5792 5789 5787 5784 5782 5780 5777 5775 5773 5771 5769 5767 5766 5764 5762 5761 5759 5757 5756 5755 5754 5753 5752 5751 5750 5749 5747 5746 5746 5745 5744 5742 5741 5740
5817 5812 5809 5806 5803 5800 5797 5794 5792 5789 5786 5784 5781 5779 5777 5775 5773 5771 5769 5767 5765 5763 5761 5760 5758 5757 5755 5753 5752 5751 5751 5751 5750 5749 5748 5747 5746 5745 5745 5743 5742 5740 5739
5812 5808 5805 5802 5799 5796 5794 5791 5788 5786 5783 5781 5779 5776 5774 5772 5770 5768 5766 5765 5762 5760 5758 5757 5755 5754 5752 5751 5749 5748 5748 5748 5748 5747 5747 5746 5745 5744 5744 5743 5742 5740 5739
5806 5803 5800 5798 5795 5792 5790 5787 5785 5782 5780 5778 5775 5773 5771 5769 5767 5765 5763 5761 5759 5758 5756 5754 5752 5751 5749 5747 5746 5744 5744 5744 5745 5744 5744 5744 5744 5743 5743 5742 5741 5740 5738
5800 5797 5795 5793 5790 5788 5785 5782 5780 5778 5776 5774 5772 5769 5767 5765 5763 5761 5759 5757 5755 5754 5753 5751 5749 5747 5745 5743 5742 5741 5740 5741 5741 5741 5742 5742 5742 5742 5742 5741 5741 5740 5739
5792 5791 5790 5788 5786 5783 5781 5779 5776 5774 5773 5771 5768 5766 5764 5761 5759 5757 5756 5754 5752 5751 5749 5747 5745 5743 5741 5740 5738 5737 5737 5737 5737 5738 5740 5740 5740 5740 5741 5741 5740 5740 5739
5786 5786 5784 5784 5782 5780 5776 5774 5771 5770 5769 5767 5765 5761 5759 5757 5755 5753 5752 5750 5749 5748 5746 5743 5740 5738 5737 5736 5734 5733 5733 5732 5733 5735 5737 5738 5739 5739 5739 5739 5739 5739 5738
5775 5775 5777 5777 5775 5772 5770 5767 5766 5765 5764 5762 5760 5757 5755 5752 5750 5748 5747 5746 5745 5744 5742 5740 5737 5735 5734 5732 5730 5729 5729 5729 5730 5731 5733 5736 5738 5738 5738 5738 5738 5738 5738
5765 5765 5766 5766 5764 5763 5762 5760 5759 5757 5756 5755 5754 5752 5749 5747 5744 5742 5741 5740 5739 5738 5737 5736 5734 5732 5730 5729 5727 5726 5726 5726 5727 5727 5729 5733 5735 5737 5737 5737 5736 5736 5736
5757 5757 5758 5757 5755 5754 5752 5751 5750 5749 5748 5747 5746 5744 5742 5740 5737 5735 5734 5733 5732 5732 5731 5730 5729 5728 5727 5726 5725 5724 5724 5723 5724 5724 5726 5729 5732 5734 5735 5736 5735 5734 5734
5750 5750 5750 5749 5748 5747 5745 5743 5742 5741 5739 5737 5737 5735 5734 5732 5730 5728 5726 5725 5724 5724 5723 5723 5723 5723 5723 5722 5722 5722 5721 5720 5720 5722 5723 5725 5728 5730 5732 5733 5733 5733 5734
5744 5743 5743 5744 5741 5739 5737 5735 5734 5732 5730 5729 5728 5727 5725 5724 5722 5720 5718 5716 5716 5715 5715 5715 5716 5715 5716 5717 5718 5718 5718 5718 5718 5719 5719 5721 5724 5727 5729 5730 5731 5733 5733
5737 5736 5735 5735 5733 5731 5729 5727 5725 5723 5721 5720 5719 5718 5717 5716 5714 5712 5710 5708 5708 5708 5707 5708 5708 5708 5709 5710 5711 5713 5714 5714 5714 5715 5717 5719 5720 5723 5725 5728 5729 5731 5732
5734 5732 5730 5728 5726 5724 5722 5719 5716 5714 5712 5710 5709 5709 5708 5706 5705 5703 5701 5700 5700 5699 5699 5699 5700 5701 5702 5703 5706 5708 5710 5711 5711 5712 5714 5717 5718 5721 5723 5725 5727 5729 5731
5730 5727 5725 5721 5719 5716 5712 5708 5704 5701 5701 5700 5699 5698 5697 5696 5695 5693 5692 5691 5691 5690 5690 5691 5691 5693 5693 5695 5696 5699 5704 5707 5708 5710 5713 5715 5718 5720 5722 5724 5725 5727 5730
5727 5724 5721 5717 5713 5710 5705 5701 5697 5694 5692 5691 5689 5688 5687 5686 5686 5685 5683 5682 5682 5682 5681 5682 5682 5683 5685 5687 5687 5688 5691 5696 5702 5709 5711 5714 5716 5718 5720 5722 5724 5726 5728
5724 5721 5718 5713 5708 5704 5700 5695 5690 5687 5683 5681 5679 5677 5677 5676 5676 5676 5675 5675 5674 5674 5673 5673 5674 5674 5675 5678 5680 5680 5682 5685 5692 5702 5707 5711 5714 5716 5718 5721 5723 5725 5727
5722 5719 5714 5708 5703 5698 5693 5688 5682 5677 5672 5671 5670 5669 5668 5668 5668 5668 5668 5668 5667 5666 5665 5665 5667 5666 5666 5667 5671 5675 5678 5681 5683 5688 5698 5705 5710 5713 5716 5719 5722 5725 5726
5719 5713 5707 5702 5696 5691 5686 5681 5675 5670 5667 5665 5663 5661 5660 5660 5659 5659 5659 5659 5659 5658 5657 5658 5658 5659 5659 5660 5662 5665 5670 5674 5678 5679 5684 5694 5701 5708 5713 5716 5720 5723 5725
5711 5705 5700 5693 5688 5683 5678 5674 5669 5664 5660 5657 5654 5652 5650 5649 5649 5650 5650 5650 5649 5649 5649 5650 5651 5652 5653 5654 5655 5657 5660 5663 5668 5672 5675 5682 5688 5698 5707 5712 5717 5721 5724